Погода в Учаджи

Погода в Учаджи : погода сейчас, прогноз погоды и архив. Всё, что Вы хотите узнать о погоде в Учаджи!

Хотите узнать прогноз погоды в Учаджи? Тогда Вам сюда: Погода в Учаджи

Поиск расширенной информации на нашем сайте:

Другие новости

Новости СМИ2

Главная страница сайта

Новости сайта

03.07.2017

Напоминаем, что на нашем специализированном сайте Метеоцентр.Азия вы можете получить высокодетализированные автоматические прогнозы погоды по пунктам России, СНГ и мира в авиационном формате (включающие направление и скорость ветра, видимость, явления погоды, количество и форму облачности, нижнюю и верхнюю границу облачности).

Рекомендуем: Анорексия фото мужчины в мире набирает популярность мужская анорексия.

Погода в Учаджи - сегодня

Время (UTC), дата Ветер
(°,м/с) 
Видим.   Явления Облачность Т
(°С)
Тd
(°С)
f(%) Тe
(°С)
Pmin
(гПа)
dP
(гПа)
Po
(мм)
O2
(г/м3)
Тmin Tmax R s Состояние
почвы
12 17.02.18 110 (В) 10 км    9/9 600 м 
[Sc]
+8 +0.9 61 +7  1028.4  -2.3  754  295           
15 17.02.18 070 (В) 10 км    10/10 600 м 
[Sc]
+7.2 +2.1 70 +7  1027.7  -0.8  753  295    +8.6       
18 17.02.18 070 (В) 10 км    10/10 600 м 
[Sc]
+6.6 +1.7 71 +6  1026.6  -1.2  752  296    +8.6       
21 17.02.18 050 (СВ) 10 км    10/10 600 м 
[Sc]
+5 +1.2 76 +5  1025.6  -1  752  297           
00 18.02.18 050 (СВ) 10 км    5/5 600 м 
[Sc]
+3.4 +1.3 86 +3  1025.3  -0.5  751  299           
03 18.02.18 050 (СВ) 10 км    4/4 600 м 
[Sc]
+2.2 +0.6 89 +3  1024.9  -0.5             
06 18.02.18 090 (В) 10 км    6/0 верхняя 
[Ci fib]
+4.6 -0.2 71 +3  1025.1  0.4  751  298  +2         
09 18.02.18 110 (В) 10 км    8/0 верхняя 
[Ci fib]
+11.6 -2.2 38 +11  1022.1  -2.3  749  290           
12 18.02.18 090 (В) 10 км    8/0 верхняя 
[Ci sp]
+15.2 -1.9 31 +15  1019.5  -2.3  748  286           
15 18.02.18 070 (В) 10 км    4/0 верхняя 
[Ci fib]
+11.6 -0.2 44 +11  1018.6  -1.2  747  289    +15.4       
18 18.02.18 090 (В) 10 км    ясно 
+8.8 -0.9 51 +8  1017.2  -1.6  746  291    +15.4       
21 18.02.18 090 (В) 10 км    ясно 
+6.6 +1.7 71 +6  1016.1  -1.2  745  293           
00 19.02.18 090 (В) 10 км    ясно 
+6 +1.5 73 +5  1013.9  -2.2  743  293           
03 19.02.18 110 (В) 10 км    8/5 600 м верхняя 
[Sc|Ci fib]
+6.1 +1.3 71 +5  1013.2  -0.6  750  296           
06 19.02.18 110 (В) 10 км    9/9 600 м 
[Sc]
+11.7 -0.2 44 +10  1012.6  -0.2  742  287  +5.8         
09 19.02.18 110 (В) 10 км    8/0 верхняя 
[Ci ing]
+18.6 -1.7 25 +19  1010.2  -1.8  741  280           
12 19.02.18 110 (В) 10 км    10/10 600 м 
[Sc]
+20.3 -2.5 21 +20  1009.2  -0.9  740  278           
15 19.02.18 320 (СЗ) 10 км    8/0 верхняя 
[Ci ing]
+13.7 -0.9 37 +13  1012.6  2.9  743  285    +20.6       
18 19.02.18 340 (С) 10 км    10/10 600 м 
[Sc]
+9.8 -0.9 47 +8  1014.2  1.1  743  289    +20.6       
21 19.02.18 320 (СЗ) 10 км    10/10 600 м 
[Sc]
+7.4 +2.1 69 +6  1013.3  -0.9  743  291           
00 20.02.18 340 (С) 10 км  слаб. дождь  10/10 600 м 
[Frnb|Ns]
+4.1 +2.6 90 +2  1015  1.3  744  295           
03 20.02.18 тихо ()   10 км    6/6 600 м 
[Sc]
-3.6 -6.1 83 -4  1032.9  0.7  758  310           
06 20.02.18 320 (СЗ) 10 км    3/0 верхняя 
[Ci ing]
+2.8 -2.4 69 1030.4  3.8  755  301  +0.4         
09 20.02.18 290 (З) 10 км    10/10 600 м 
[Sc]
+6.4 +4.8 89 +5  1019.2  0.6  747  293           
12 20.02.18 320 (СЗ) 10 км    10/10 600 м 
[Sc]
+6 +4.4 89 +4  1019.7  0.5  747  294           
Время (UTC), дата Ветер
(°,м/с) 
Видим.   Явления Облачность Т
(°С)
Тd
(°С)
f(%) Тe
(°С)
Pmin
(гПа)
dP
(гПа)
Po
(мм)
O2
(г/м3)
Тmin Tmax R s Состояние
почвы

Для получения пояснительной информации подведите курсор к названию столбца.

ПОГОДА в Учаджи - архив

Всё, что Вы хотите узнать о погоде в Учаджи - удобно и подробно!

Выберите нужную дату (начиная с 1 января 2015* года) и нажмите кнопку "Найти".
Будут отображены архивные сводки погоды по пункту Учаджи, начиная с указанной даты.


Отображать данные в формате CSV (для использования в таблицах Excel)


Внимание! Наш архив погоды предназначен исключительно для личного некоммерческого использования в познавательных целях. Если Вам необходимы официальные справки о состоянии погоды (для производственных, юридических, коммерческих и т.п. целей), обращайтесь в органы Росгидромета.

*Примечание: данная дата относится к архиву по метеостанциям СССР (Россия, СНГ, Балтия).
Архив по метеостанциям Зарубежной Европы и Азии (кроме Китая) хранится 10 дней, по другим регионам земного шара (Китай, Африка, Америка, Австралия, Океания) - 1 день.

Учаджи - район местоположения метеостанции


Название, широта, долгота, высота метеостанции:
Учаджи 38.1°ш. 62.8°д. 185 м над ур. моря [Туркменистан]

Дополнительная информация

В oтличие oт бoльшинства пoгoдных сайтoв мы публикуем пoдрoбную метеoинфoрмацию в детальнoм прoфессиoнальнoм фoрмате.

Характеристики температуры и влажнoсти вoздуха измеряются на высoте 2 м в тени вдали oт зданий и деревьев.
Скoрoсть ветра измеряется на высoте 10 м (на урoвне рoста челoвека скoрoсть ветра ниже в 1.5-2 раза). Если метеoстанция нахoдится в гoрoде или в лесу, тo скoрoсть ветра занижена на 2-4 м/с пo сравнению с oткрытым местoм. Скoрoсть ветра над акватoриями крупных рек и oзёр, а также на вершинах хoлмoв на 2-5 м/с выше, чем в oбычных услoвиях.
Атмoсфернoе давление в разных тoчках местнoсти мoжет значительнo oтличаться oт давления на метеoстанции, в зависимoсти oт услoвий рельефа (при пoдъёме на 10 м давление пoнижается примернo на 1 мм рт.ст.).